Location: ??????????
(54.8537°N, 38.8755°E)
Time: 22:32:36
(UTC+00:00)

Tiros 1 - Pass Details

Date: 21 September 2024
Orbit: 623 x 654 km, 48.4° (Epoch: 09 October)

Event Time Altitude Azimuth Distance (km) Brightness Sun altitude
Rises 15:31:55 0° 271° (W) 2,905 14.1 -1.8°
Reaches altitude 10° 15:34:36 10° 256° (WSW) 1,999 11.3 -2.2°
Maximum altitude 15:38:11 23° 205° (SSW) 1,347 9.1 -2.7°
Drops below altitude 10° 15:41:47 10° 153° (SSE) 2,005 9.4 -3.2°
Sets 15:44:29 0° 139° (SE) 2,916 10.1 -3.6°
